Time,TemperatureF,DewpointF,PressureIn,WindDirection,WindDirectionDegrees,WindSpeedMPH,WindSpeedGustMPH,Humidity,HourlyPrecipIn,Conditions,Clouds,dailyrainin,SoftwareType,DateUTC
2013-05-18 00:03:00,74.1,71.0,30.01,SSE,155,0.0,-999.0,91,-99.99,,,0.00,weatherlink.com 1.10,2013-05-18 05:03:00,
2013-05-18 00:18:00,73.9,71.0,30.00,WSW,250,0.0,-999.0,91,-99.99,,,0.00,weatherlink.com 1.10,2013-05-18 05:18:00,
2013-05-18 00:33:00,73.7,71.0,30.00,South,178,0.0,-999.0,92,-99.99,,,0.00,weatherlink.com 1.10,2013-05-18 05:33:00,
2013-05-18 00:49:00,73.5,71.0,30.00,East,98,0.0,-999.0,93,-99.99,,,0.00,weatherlink.com 1.10,2013-05-18 05:49:00,
2013-05-18 01:04:00,73.3,71.0,30.00,ESE,104,0.0,-999.0,93,-99.99,,,0.00,weatherlink.com 1.10,2013-05-18 06:04:00,
2013-05-18 01:19:00,73.3,71.0,30.00,ESE,106,0.0,-999.0,93,-99.99,,,0.00,weatherlink.com 1.10,2013-05-18 06:19:00,
2013-05-18 01:34:00,73.4,72.0,29.99,SE,144,0.0,-999.0,94,-99.99,,,0.00,weatherlink.com 1.10,2013-05-18 06:34:00,
2013-05-18 01:49:00,73.5,72.0,29.99,WNW,291,0.0,-999.0,94,-99.99,,,0.00,weatherlink.com 1.10,2013-05-18 06:49:00,
2013-05-18 02:04:00,73.7,72.0,29.98,SE,144,0.0,-999.0,94,-99.99,,,0.00,weatherlink.com 1.10,2013-05-18 07:04:00,
2013-05-18 02:19:00,73.8,72.0,29.98,SE,144,0.0,-999.0,94,-99.99,,,0.00,weatherlink.com 1.10,2013-05-18 07:19:00,
2013-05-18 02:34:00,73.7,72.0,29.98,SE,145,0.0,-999.0,94,-99.99,,,0.00,weatherlink.com 1.10,2013-05-18 07:34:00,
2013-05-18 02:49:00,73.6,72.0,29.98,SE,145,0.0,-999.0,94,-99.99,,,0.00,weatherlink.com 1.10,2013-05-18 07:49:00,
2013-05-18 03:04:00,73.6,72.0,29.98,SE,145,0.0,-999.0,94,-99.99,,,0.00,weatherlink.com 1.10,2013-05-18 08:04:00,
2013-05-18 03:19:00,73.5,72.0,29.98,SE,144,0.0,-999.0,94,-99.99,,,0.00,weatherlink.com 1.10,2013-05-18 08:19:00,
2013-05-18 03:34:00,73.5,72.0,29.98,SSE,153,0.0,-999.0,94,-99.99,,,0.00,weatherlink.com 1.10,2013-05-18 08:34:00,
2013-05-18 03:49:00,73.5,72.0,29.98,South,180,0.0,-999.0,94,-99.99,,,0.00,weatherlink.com 1.10,2013-05-18 08:49:00,
2013-05-18 04:04:00,73.6,72.0,29.97,ENE,77,0.0,-999.0,94,-99.99,,,0.00,weatherlink.com 1.10,2013-05-18 09:04:00,
2013-05-18 04:19:00,73.6,72.0,29.98,SSE,153,0.0,-999.0,94,-99.99,,,0.00,weatherlink.com 1.10,2013-05-18 09:19:00,
2013-05-18 04:34:00,73.7,72.0,29.97,ESE,115,0.0,-999.0,94,-99.99,,,0.00,weatherlink.com 1.10,2013-05-18 09:34:00,
2013-05-18 04:49:00,73.7,72.0,29.98,WNW,288,1.0,-999.0,94,-99.99,,,0.00,weatherlink.com 1.10,2013-05-18 09:49:00,
2013-05-18 05:04:00,73.7,72.0,29.98,South,170,0.0,-999.0,94,-99.99,,,0.00,weatherlink.com 1.10,2013-05-18 10:04:00,
2013-05-18 05:19:00,73.7,72.0,29.98,SSW,194,0.0,-999.0,93,-99.99,,,0.00,weatherlink.com 1.10,2013-05-18 10:19:00,
2013-05-18 05:34:00,73.8,72.0,29.99,SSW,193,0.0,-999.0,93,-99.99,,,0.00,weatherlink.com 1.10,2013-05-18 10:34:00,
2013-05-18 05:49:00,73.9,72.0,29.99,SSW,193,0.0,-999.0,93,-99.99,,,0.00,weatherlink.com 1.10,2013-05-18 10:49:00,
2013-05-18 06:04:00,74.0,72.0,30.00,SE,132,0.0,-999.0,93,-99.99,,,0.00,weatherlink.com 1.10,2013-05-18 11:04:00,
2013-05-18 06:19:00,74.1,72.0,30.00,SE,128,0.0,-999.0,93,-99.99,,,0.00,weatherlink.com 1.10,2013-05-18 11:19:00,
2013-05-18 06:34:00,74.2,72.0,30.01,SSE,152,0.0,-999.0,93,-99.99,,,0.00,weatherlink.com 1.10,2013-05-18 11:34:00,
2013-05-18 06:49:00,74.4,72.0,30.02,SSE,151,0.0,-999.0,93,-99.99,,,0.00,weatherlink.com 1.10,2013-05-18 11:49:00,
2013-05-18 07:04:00,74.5,72.0,30.02,SSE,155,0.0,-999.0,93,-99.99,,,0.00,weatherlink.com 1.10,2013-05-18 12:04:00,
2013-05-18 07:19:00,74.8,73.0,30.02,South,186,1.0,-999.0,93,-99.99,,,0.00,weatherlink.com 1.10,2013-05-18 12:19:00,
2013-05-18 07:34:00,75.1,73.0,30.03,SE,133,0.0,-999.0,93,-99.99,,,0.00,weatherlink.com 1.10,2013-05-18 12:34:00,
2013-05-18 07:49:00,75.3,73.0,30.03,ESE,115,1.0,-999.0,92,-99.99,,,0.00,weatherlink.com 1.10,2013-05-18 12:49:00,
2013-05-18 08:04:00,75.7,73.0,30.04,SSE,148,0.0,-999.0,91,-99.99,,,0.00,weatherlink.com 1.10,2013-05-18 13:04:00,
2013-05-18 08:19:00,76.6,73.0,30.04,South,170,0.0,-999.0,89,-99.99,,,0.00,weatherlink.com 1.10,2013-05-18 13:19:00,
2013-05-18 08:34:00,78.2,74.0,30.05,SSE,167,0.0,-999.0,87,-99.99,,,0.00,weatherlink.com 1.10,2013-05-18 13:34:00,
2013-05-18 08:49:00,79.8,75.0,30.05,SE,138,1.0,-999.0,84,-99.99,,,0.00,weatherlink.com 1.10,2013-05-18 13:49:00,
2013-05-18 09:04:00,79.8,74.0,30.05,South,186,0.0,-999.0,83,-99.99,,,0.00,weatherlink.com 1.10,2013-05-18 14:04:00,
2013-05-18 09:19:00,79.7,74.0,30.05,SSW,192,0.0,-999.0,82,-99.99,,,0.00,weatherlink.com 1.10,2013-05-18 14:19:00,
2013-05-18 09:34:00,80.6,74.0,30.05,South,174,0.0,-999.0,80,-99.99,,,0.00,weatherlink.com 1.10,2013-05-18 14:34:00,
2013-05-18 09:49:00,81.4,74.0,30.06,SE,144,0.0,-999.0,79,-99.99,,,0.00,weatherlink.com 1.10,2013-05-18 14:49:00,
2013-05-18 10:04:00,81.6,74.0,30.06,SW,227,0.0,-999.0,77,-99.99,,,0.00,weatherlink.com 1.10,2013-05-18 15:04:00,
2013-05-18 10:19:00,82.8,75.0,30.06,South,179,1.0,-999.0,76,-99.99,,,0.00,weatherlink.com 1.10,2013-05-18 15:19:00,
2013-05-18 10:34:00,84.5,75.0,30.06,WSW,257,3.0,-999.0,73,-99.99,,,0.00,weatherlink.com 1.10,2013-05-18 15:34:00,
2013-05-18 10:50:00,84.5,75.0,30.06,ESE,123,1.0,-999.0,72,-99.99,,,0.00,weatherlink.com 1.10,2013-05-18 15:50:00,
2013-05-18 11:05:00,84.1,74.0,30.06,South,169,0.0,-999.0,71,-99.99,,,0.00,weatherlink.com 1.10,2013-05-18 16:05:00,
2013-05-18 11:20:00,85.3,74.0,30.06,SW,232,0.0,-999.0,69,-99.99,,,0.00,weatherlink.com 1.10,2013-05-18 16:20:00,
2013-05-18 11:35:00,87.1,76.0,30.05,East,90,4.0,-999.0,69,-99.99,,,0.00,weatherlink.com 1.10,2013-05-18 16:35:00,
2013-05-18 11:50:00,86.8,76.0,30.05,East,100,1.0,-999.0,69,-99.99,,,0.00,weatherlink.com 1.10,2013-05-18 16:50:00,
2013-05-18 12:05:00,87.2,75.0,30.04,SW,220,3.0,-999.0,66,-99.99,,,0.00,weatherlink.com 1.10,2013-05-18 17:05:00,
2013-05-18 12:20:00,88.1,75.0,30.04,SSE,158,0.0,-999.0,65,-99.99,,,0.00,weatherlink.com 1.10,2013-05-18 17:20:00,
2013-05-18 12:35:00,88.6,75.0,30.03,ESE,122,0.0,-999.0,64,-99.99,,,0.00,weatherlink.com 1.10,2013-05-18 17:35:00,
2013-05-18 12:50:00,89.4,74.0,30.02,SW,223,0.0,-999.0,61,-99.99,,,0.00,weatherlink.com 1.10,2013-05-18 17:50:00,
2013-05-18 13:05:00,88.7,74.0,30.02,SSE,155,2.0,-999.0,62,-99.99,,,0.00,weatherlink.com 1.10,2013-05-18 18:05:00,
2013-05-18 13:20:00,89.1,74.0,30.02,SSE,152,2.0,-999.0,61,-99.99,,,0.00,weatherlink.com 1.10,2013-05-18 18:20:00,
2013-05-18 13:35:00,89.8,74.0,30.02,WSW,255,0.0,-999.0,60,-99.99,,,0.00,weatherlink.com 1.10,2013-05-18 18:35:00,
2013-05-18 13:50:00,90.3,75.0,30.01,NNW,341,0.0,-999.0,61,-99.99,,,0.00,weatherlink.com 1.10,2013-05-18 18:50:00,
2013-05-18 14:05:00,91.6,74.0,30.01,ESE,122,6.0,-999.0,57,-99.99,,,0.00,weatherlink.com 1.10,2013-05-18 19:05:00,
2013-05-18 14:20:00,90.7,74.0,30.01,SW,233,2.0,-999.0,58,-99.99,,,0.00,weatherlink.com 1.10,2013-05-18 19:20:00,
2013-05-18 14:35:00,90.4,75.0,30.01,West,275,0.0,-999.0,60,-99.99,,,0.00,weatherlink.com 1.10,2013-05-18 19:35:00,
2013-05-18 14:50:00,89.5,73.0,30.01,SE,130,0.0,-999.0,59,-99.99,,,0.00,weatherlink.com 1.10,2013-05-18 19:50:00,
2013-05-18 15:05:00,90.3,74.0,30.00,SW,217,2.0,-999.0,59,-99.99,,,0.00,weatherlink.com 1.10,2013-05-18 20:05:00,
2013-05-18 15:20:00,90.7,75.0,30.00,SW,225,1.0,-999.0,60,-99.99,,,0.00,weatherlink.com 1.10,2013-05-18 20:20:00,
2013-05-18 15:35:00,91.7,74.0,30.00,ESE,117,0.0,-999.0,56,-99.99,,,0.00,weatherlink.com 1.10,2013-05-18 20:35:00,
2013-05-18 15:50:00,92.1,74.0,29.99,West,281,0.0,-999.0,56,-99.99,,,0.00,weatherlink.com 1.10,2013-05-18 20:50:00,
2013-05-18 16:05:00,92.3,74.0,29.99,SSE,164,0.0,-999.0,55,-99.99,,,0.00,weatherlink.com 1.10,2013-05-18 21:05:00,
2013-05-18 16:20:00,92.0,73.0,29.98,WSW,258,1.0,-999.0,54,-99.99,,,0.00,weatherlink.com 1.10,2013-05-18 21:20:00,
2013-05-18 16:35:00,92.2,74.0,29.98,SSE,149,5.0,-999.0,55,-99.99,,,0.00,weatherlink.com 1.10,2013-05-18 21:35:00,
2013-05-18 16:50:00,91.2,74.0,29.98,SSW,196,0.0,-999.0,57,-99.99,,,0.00,weatherlink.com 1.10,2013-05-18 21:50:00,
2013-05-18 17:05:00,90.0,73.0,29.99,South,190,1.0,-999.0,57,-99.99,,,0.00,weatherlink.com 1.10,2013-05-18 22:05:00,
2013-05-18 17:20:00,89.8,73.0,29.99,SSE,155,1.0,-999.0,57,-99.99,,,0.00,weatherlink.com 1.10,2013-05-18 22:20:00,
2013-05-18 17:35:00,89.1,72.0,29.99,SSE,160,0.0,-999.0,58,-99.99,,,0.00,weatherlink.com 1.10,2013-05-18 22:35:00,
2013-05-18 17:50:00,88.8,74.0,29.99,SE,142,0.0,-999.0,61,-99.99,,,0.00,weatherlink.com 1.10,2013-05-18 22:50:00,
2013-05-18 18:05:00,88.1,72.0,29.98,SSW,202,0.0,-999.0,60,-99.99,,,0.00,weatherlink.com 1.10,2013-05-18 23:05:00,
2013-05-18 18:20:00,87.4,72.0,29.98,SE,138,0.0,-999.0,61,-99.99,,,0.00,weatherlink.com 1.10,2013-05-18 23:20:00,
2013-05-18 18:35:00,86.9,73.0,29.99,SE,137,0.0,-999.0,63,-99.99,,,0.00,weatherlink.com 1.10,2013-05-18 23:35:00,
2013-05-18 18:50:00,86.4,73.0,29.99,SSW,195,1.0,-999.0,64,-99.99,,,0.00,weatherlink.com 1.10,2013-05-18 23:50:00,
2013-05-18 19:05:00,85.7,73.0,29.98,SSW,192,0.0,-999.0,66,-99.99,,,0.00,weatherlink.com 1.10,2013-05-19 00:05:00,
2013-05-18 19:20:00,85.0,73.0,29.98,SSW,192,0.0,-999.0,67,-99.99,,,0.00,weatherlink.com 1.10,2013-05-19 00:20:00,
2013-05-18 19:35:00,84.3,73.0,29.98,SSW,192,0.0,-999.0,68,-99.99,,,0.00,weatherlink.com 1.10,2013-05-19 00:35:00,
2013-05-18 19:50:00,83.5,72.0,29.98,SSW,192,0.0,-999.0,69,-99.99,,,0.00,weatherlink.com 1.10,2013-05-19 00:50:00,
2013-05-18 20:05:00,82.3,72.0,29.98,SSW,192,0.0,-999.0,71,-99.99,,,0.00,weatherlink.com 1.10,2013-05-19 01:05:00,
2013-05-18 20:20:00,81.4,72.0,29.98,SSW,192,0.0,-999.0,73,-99.99,,,0.00,weatherlink.com 1.10,2013-05-19 01:20:00,
2013-05-18 20:35:00,80.4,72.0,29.98,SSW,192,0.0,-999.0,76,-99.99,,,0.00,weatherlink.com 1.10,2013-05-19 01:35:00,
2013-05-18 20:50:00,79.3,71.0,29.98,SSW,192,0.0,-999.0,76,-99.99,,,0.00,weatherlink.com 1.10,2013-05-19 01:50:00,
2013-05-18 21:05:00,78.2,71.0,29.99,SSW,192,0.0,-999.0,78,-99.99,,,0.00,weatherlink.com 1.10,2013-05-19 02:05:00,
2013-05-18 21:20:00,77.3,71.0,29.99,SSW,192,0.0,-999.0,80,-99.99,,,0.00,weatherlink.com 1.10,2013-05-19 02:20:00,
2013-05-18 21:35:00,76.4,70.0,29.98,SSW,192,0.0,-999.0,81,-99.99,,,0.00,weatherlink.com 1.10,2013-05-19 02:35:00,
2013-05-18 21:50:00,75.7,70.0,29.98,SSW,192,0.0,-999.0,82,-99.99,,,0.00,weatherlink.com 1.10,2013-05-19 02:50:00,
2013-05-18 22:05:00,75.1,69.0,29.99,SSW,192,0.0,-999.0,82,-99.99,,,0.00,weatherlink.com 1.10,2013-05-19 03:05:00,
2013-05-18 22:20:00,74.6,70.0,29.99,SSW,192,0.0,-999.0,84,-99.99,,,0.00,weatherlink.com 1.10,2013-05-19 03:20:00,
2013-05-18 22:35:00,74.1,69.0,29.99,SSW,192,0.0,-999.0,85,-99.99,,,0.00,weatherlink.com 1.10,2013-05-19 03:35:00,
2013-05-18 22:50:00,73.7,69.0,29.99,SSW,192,0.0,-999.0,85,-99.99,,,0.00,weatherlink.com 1.10,2013-05-19 03:50:00,
2013-05-18 23:05:00,73.6,69.0,29.99,SSW,192,0.0,-999.0,86,-99.99,,,0.00,weatherlink.com 1.10,2013-05-19 04:05:00,
2013-05-18 23:20:00,73.6,70.0,29.98,SSW,192,0.0,-999.0,87,-99.99,,,0.00,weatherlink.com 1.10,2013-05-19 04:20:00,
2013-05-18 23:35:00,73.5,70.0,29.98,SSW,192,0.0,-999.0,87,-99.99,,,0.00,weatherlink.com 1.10,2013-05-19 04:35:00,
2013-05-18 23:50:00,73.4,70.0,29.98,SSW,192,0.0,-999.0,88,-99.99,,,0.00,weatherlink.com 1.10,2013-05-19 04:50:00,